This is the latest recevied weather packets stored in our database for station/object KF0JHJ. If no packets are shown the sender has not sent any weather packets the latest 10 day(s).
| Time | Temp. | Humidity | Pressure | Rain* | Wind** | Luminosity | Snow |
|---|---|---|---|---|---|---|---|
| 1778095125 | 6.67° C | 54% | 1014.6 hPa | - | - | 229 W/m² | - |
| 1778094821 | 6.67° C | 56% | 1014.6 hPa | - | - | 215 W/m² | - |
| 1778094518 | 6.67° C | 57% | 1014.4 hPa | - | - | 224 W/m² | - |
| 1778094214 | 6.67° C | 55% | 1014.4 hPa | - | - | 197 W/m² | - |
| 1778093911 | 6.67° C | 57% | 1014.4 hPa | - | - | 217 W/m² | - |
| 1778093608 | 6.67° C | 56% | 1014.3 hPa | - | - | 199 W/m² | - |
| 1778093305 | 6.11° C | 54% | 1014.5 hPa | - | - | 194 W/m² | - |
| 1778093002 | 6.11° C | 53% | 1014.3 hPa | - | - | 184 W/m² | - |
| 1778092700 | 6.67° C | 56% | 1014.5 hPa | - | - | 198 W/m² | - |
| 1778092395 | 6.11° C | 57% | 1014.6 hPa | - | - | 184 W/m² | - |
| 1778092092 | 6.11° C | 54% | 1014.8 hPa | - | - | 190 W/m² | - |
| 1778091790 | 6.11° C | 56% | 1014.7 hPa | - | - | 166 W/m² | - |
| 1778091487 | 5.56° C | 56% | 1014.6 hPa | - | - | 168 W/m² | - |
| 1778091185 | 5.56° C | 58% | 1014.7 hPa | - | - | 143 W/m² | - |
| 1778090883 | 5.56° C | 58% | 1014.4 hPa | - | - | 126 W/m² | - |
| 1778090577 | 5.56° C | 60% | 1014.6 hPa | - | - | 114 W/m² | - |
| 1778090274 | 5.56° C | 57% | 1014.5 hPa | - | - | 138 W/m² | - |
| 1778089971 | 5.56° C | 58% | 1014.7 hPa | - | - | 184 W/m² | - |
| 1778089668 | 5.56° C | 59% | 1014.7 hPa | - | - | 220 W/m² | - |
| 1778089365 | 5° C | 60% | 1014.8 hPa | - | - | 219 W/m² | - |
| 1778089063 | 5° C | 63% | 1014.9 hPa | - | - | 148 W/m² | - |
| 1778088760 | 4.44° C | 60% | 1015 hPa | - | - | 95 W/m² | - |
| 1778088456 | 4.44° C | 60% | 1015 hPa | - | - | 95 W/m² | - |
| 1778088153 | 4.44° C | 59% | 1015 hPa | - | - | 84 W/m² | - |
| 1778087851 | 5° C | 59% | 1015.1 hPa | - | - | 81 W/m² | - |
* Rain since midnight (hover to see other rain measurements)
** Current wind speed in m/s (hover to see current wind gust speed)